Spartanburg, SC

5:18 AM EDT on July 25, 2017 (GMT -0400)
Spartanburg Downtown Memorial

Weather History for KSPA - March, 2012

Change the Weather History Date:

Thursday, March 1, 2012

  Actual Average (KGSP) Record (KGSP)
Temperature  
Mean Temperature 71 °F -  
Max Temperature 80 °F 59 °F 80 °F (1918)
Min Temperature 62 °F 36 °F 19 °F (1906)
Cooling Degree Days 6    
Growing Degree Days 21 (Base 50)    
Moisture  
Dew Point 53 °F    
Average Humidity 64    
Maximum Humidity 100    
Minimum Humidity 21    
Precipitation  
Precipitation 0.00 in - - ()
Sea Level Pressure  
Sea Level Pressure 29.85 in    
Wind  
Wind Speed 11 mph (WSW)    
Max Wind Speed 21 mph    
Max Gust Speed 26 mph    
Visibility 10 miles    
Events      
Averages and records for this station are not official NWS values.
T = Trace of Precipitation, MM = Missing Value Source: NWS Daily Summary

Daily Weather History Graph

Daily Weather History Graph

Search for Another Location

Airport or City:

Trip Planner

Search our weather history database for the weather conditions in past years. The results will help you decide how hot, cold, wet, or windy it might be!

Date:

Astronomy

Mar. 01, 2012 Rise Set
Actual Time 6:56 AM EST 6:24 PM EST
Civil Twilight 6:31 AM EST 6:49 PM EST
Nautical Twilight 6:01 AM EST 7:18 PM EST
Astronomical Twilight 5:32 AM EST 7:48 PM EST
Moon 11:53 AM EST (3/1) 1:43 AM EST (3/1)
Length of Visible Light 12h 18m
Length of Day
11h 27m
First Quarter, 56% of the Moon is Illuminated
Mar 1
First Quarter
Mar 8
Full
Mar 14
Last Quarter
Mar 22
New
Mar 30
First Quarter

Hourly Weather History & Observations

Time (EST) Temp. Dew Point Humidity Pressure Visibility Wind Dir Wind Speed Gust Speed Precip Events Conditions
12:15 AM 64.4 °F 62.6 °F 94% 29.86 in 10.0 mi SW 10.4 mph 18.4 mph N/A   Scattered Clouds
12:35 AM 64.4 °F 62.6 °F 94% 29.86 in 10.0 mi SW 12.7 mph 17.3 mph N/A   Clear
12:55 AM 64.4 °F 62.6 °F 94% 29.85 in 10.0 mi SW 13.8 mph 18.4 mph N/A   Scattered Clouds
1:15 AM 64.4 °F 62.6 °F 94% 29.85 in 10.0 mi SW 11.5 mph 20.7 mph N/A   Clear
1:35 AM 64.4 °F 62.6 °F 94% 29.86 in 10.0 mi SW 11.5 mph 20.7 mph N/A   Mostly Cloudy
1:55 AM 64.4 °F 62.6 °F 94% 29.85 in 10.0 mi SW 12.7 mph 23.0 mph N/A   Scattered Clouds
2:15 AM 64.4 °F 62.6 °F 94% 29.84 in 10.0 mi SW 12.7 mph 21.9 mph N/A   Clear
2:35 AM 64.4 °F 62.6 °F 94% 29.84 in 10.0 mi WSW 11.5 mph 17.3 mph N/A   Clear
2:55 AM 64.4 °F 62.6 °F 94% 29.84 in 10.0 mi SW 11.5 mph 16.1 mph N/A   Scattered Clouds
3:15 AM 64.4 °F 62.6 °F 94% 29.83 in 10.0 mi WSW 11.5 mph 17.3 mph N/A   Mostly Cloudy
3:35 AM 64.4 °F 62.6 °F 94% 29.82 in 10.0 mi WSW 8.1 mph 18.4 mph N/A   Scattered Clouds
3:55 AM 64.4 °F 62.6 °F 94% 29.82 in 10.0 mi WSW 9.2 mph - N/A   Mostly Cloudy
4:15 AM 64.4 °F 62.6 °F 94% 29.82 in 10.0 mi WSW 8.1 mph - N/A   Overcast
4:35 AM 64.4 °F 64.4 °F 100% 29.84 in 10.0 mi WSW 6.9 mph - N/A   Overcast
4:55 AM 64.4 °F 62.6 °F 94% 29.85 in 10.0 mi West 6.9 mph - N/A   Overcast
5:15 AM 64.4 °F 62.6 °F 94% 29.84 in 10.0 mi WSW 6.9 mph - N/A   Overcast
5:35 AM 64.4 °F 62.6 °F 94% 29.83 in 10.0 mi WSW 12.7 mph 17.3 mph N/A   Mostly Cloudy
5:55 AM 64.4 °F 62.6 °F 94% 29.84 in 10.0 mi WSW 6.9 mph - N/A   Scattered Clouds
6:15 AM 64.4 °F 62.6 °F 94% 29.84 in 10.0 mi SW 8.1 mph - N/A   Clear
6:35 AM 62.6 °F 62.6 °F 100% 29.85 in 10.0 mi SW 8.1 mph - N/A   Clear
6:55 AM 62.6 °F 62.6 °F 100% 29.85 in 10.0 mi SW 9.2 mph - N/A   Clear
7:15 AM 62.6 °F 62.6 °F 100% 29.87 in 10.0 mi WSW 8.1 mph - N/A   Mostly Cloudy
7:35 AM 62.6 °F 62.6 °F 100% 29.87 in 10.0 mi WSW 5.8 mph - N/A   Overcast
7:55 AM 64.4 °F 64.4 °F 100% 29.87 in 10.0 mi WSW 9.2 mph - N/A   Overcast
8:15 AM 64.4 °F 64.4 °F 100% 29.88 in 10.0 mi WSW 9.2 mph - N/A   Scattered Clouds
8:35 AM 64.4 °F 64.4 °F 100% 29.89 in 10.0 mi WSW 8.1 mph - N/A   Mostly Cloudy
8:55 AM 64.4 °F 64.4 °F 100% 29.89 in 10.0 mi WSW 8.1 mph - N/A   Overcast
9:15 AM 66.2 °F 64.4 °F 94% 29.89 in 7.0 mi WSW 9.2 mph - N/A   Mostly Cloudy
9:35 AM 68.0 °F 62.6 °F 83% 29.90 in 10.0 mi West 10.4 mph - N/A   Scattered Clouds
9:55 AM 69.8 °F 60.8 °F 73% 29.89 in 7.0 mi West 12.7 mph 17.3 mph N/A   Scattered Clouds
10:15 AM 69.8 °F 60.8 °F 73% 29.89 in 10.0 mi WSW 13.8 mph 19.6 mph N/A   Scattered Clouds
10:35 AM 71.6 °F 59.0 °F 64% 29.89 in 7.0 mi WSW 13.8 mph 19.6 mph N/A   Mostly Cloudy
10:55 AM 71.6 °F 59.0 °F 64% 29.89 in 7.0 mi West 16.1 mph 19.6 mph N/A   Scattered Clouds
11:15 AM 73.4 °F 55.4 °F 53% 29.89 in 7.0 mi SW 10.4 mph - N/A   Clear
11:35 AM 73.4 °F 53.6 °F 50% 29.88 in 10.0 mi WSW 13.8 mph 20.7 mph N/A   Clear
11:55 AM 73.4 °F 48.2 °F 41% 29.87 in 10.0 mi West 12.7 mph - N/A   Clear
12:15 PM 77.0 °F 50.0 °F 39% 29.87 in 10.0 mi WSW 15.0 mph 19.6 mph N/A   Clear
12:55 PM 77.0 °F 46.4 °F 34% 29.84 in 7.0 mi WSW 15.0 mph 21.9 mph N/A   Clear
1:15 PM 77.0 °F 44.6 °F 32% 29.83 in 10.0 mi West 8.1 mph 21.9 mph N/A   Clear
1:35 PM 78.8 °F 42.8 °F 28% 29.82 in 7.0 mi WSW 15.0 mph 24.2 mph N/A   Clear
1:55 PM 78.8 °F 42.8 °F 28% 29.82 in 10.0 mi SW 12.7 mph 24.2 mph N/A   Clear
2:15 PM 78.8 °F 42.8 °F 28% 29.81 in 7.0 mi WSW 10.4 mph 19.6 mph N/A   Clear
2:35 PM 78.8 °F 41.0 °F 26% 29.80 in 10.0 mi WSW 20.7 mph 25.3 mph N/A   Clear
2:55 PM 78.8 °F 39.2 °F 24% 29.80 in 10.0 mi WSW 12.7 mph 20.7 mph N/A   Clear
3:15 PM 78.8 °F 37.4 °F 23% 29.80 in 10.0 mi WSW 13.8 mph 26.5 mph N/A   Clear
3:55 PM 80.6 °F 37.4 °F 21% 29.80 in 10.0 mi West 13.8 mph 20.7 mph N/A   Clear
4:15 PM 80.6 °F 37.4 °F 21% 29.79 in 10.0 mi WSW 13.8 mph 20.7 mph N/A   Clear
4:35 PM 78.8 °F 37.4 °F 23% 29.79 in 7.0 mi SW 16.1 mph 21.9 mph N/A   Clear
4:55 PM 78.8 °F 37.4 °F 23% 29.79 in 7.0 mi WSW 13.8 mph 23.0 mph N/A   Clear
5:15 PM 78.8 °F 37.4 °F 23% 29.80 in 7.0 mi WSW 12.7 mph 21.9 mph N/A   Clear
5:35 PM 77.0 °F 37.4 °F 24% 29.80 in 10.0 mi WSW 12.7 mph 20.7 mph N/A   Clear
5:55 PM 77.0 °F 39.2 °F 26% 29.81 in 10.0 mi WSW 11.5 mph 18.4 mph N/A   Clear
6:15 PM 75.2 °F 39.2 °F 27% 29.82 in 10.0 mi SW 5.8 mph - N/A   Clear
6:35 PM 73.4 °F 42.8 °F 33% 29.82 in 10.0 mi SW 8.1 mph - N/A   Clear
6:55 PM 71.6 °F 41.0 °F 33% 29.84 in 10.0 mi SW 9.2 mph - N/A   Clear
7:15 PM 71.6 °F 42.8 °F 35% 29.84 in 10.0 mi SW 5.8 mph - N/A   Clear
7:35 PM 69.8 °F 42.8 °F 38% 29.85 in 10.0 mi SSW 3.5 mph - N/A   Clear
7:55 PM 69.8 °F 42.8 °F 38% 29.85 in 10.0 mi SW 6.9 mph - N/A   Clear
8:15 PM 68.0 °F 42.8 °F 40% 29.85 in 10.0 mi WSW 5.8 mph - N/A   Clear
8:35 PM 66.2 °F 42.8 °F 43% 29.86 in 10.0 mi WSW 4.6 mph - N/A   Clear
8:55 PM 64.4 °F 42.8 °F 45% 29.86 in 10.0 mi WSW 5.8 mph - N/A   Clear
9:15 PM 64.4 °F 42.8 °F 45% 29.87 in 10.0 mi WSW 5.8 mph - N/A   Clear
9:35 PM 62.6 °F 42.8 °F 48% 29.87 in 10.0 mi WSW 5.8 mph - N/A   Clear
9:55 PM 62.6 °F 42.8 °F 48% 29.87 in 10.0 mi SW 5.8 mph - N/A   Clear
10:15 PM 64.4 °F 42.8 °F 45% 29.88 in 10.0 mi SW 3.5 mph - N/A   Clear
10:35 PM 59.0 °F 44.6 °F 59% 29.88 in 10.0 mi SW 3.5 mph - N/A   Clear
10:55 PM 60.8 °F 44.6 °F 55% 29.88 in 10.0 mi WSW 3.5 mph - N/A   Clear
11:15 PM 59.0 °F 44.6 °F 59% 29.88 in 10.0 mi SW 3.5 mph - N/A   Clear
11:35 PM 59.0 °F 44.6 °F 59% 29.89 in 10.0 mi WSW 3.5 mph - N/A   Clear
11:55 PM 55.4 °F 44.6 °F 67% 29.88 in 10.0 mi WSW 3.5 mph - N/A   Clear